sat.trackr.live / text

‹ back to catalog

CXO

NORAD 25867 · 1999-040B

PAYLOAD ACTIVE UNKNOWN

§ Identity

Operator
Country
US
Launch date
1999-07-23
Launch site
AFETR
Launch vehicle
Mass (kg)
RCS (m²)
8.30

Purposes: science

External: N2YO · Heavens-Above · Gunter

§ Orbital elements

Epoch: 2026-09-21T13:52:52.584096Z

Period
3,809.84 min
Inclination
57.4713°
Eccentricity
0.7687429
Mean motion
0.37796833 rev/d
Perigee alt
12,308.3 km
Apogee alt
136,542.9 km
Semi-major
80,803.8 km
B*
0.0000e+0
RAAN
114.1840°
Arg perigee
309.3021°
Mean anomaly
0.4302°
Rev number
1,768

§ Raw data

CXO1 25867U 99040B   26264.57838639  .00000964  00000+0  00000+0 0  99962 25867  57.4713 114.1840 7687429 309.3021   0.4302  0.37796833 17684

JSON: /api/v1/satellites/25867 · /tle

For live sub-satellite position, see the globe view (requires WebGL).

§ Visibility from observer

Set your observer location to see the next 7 days of passes ≥ 10°. The values pass through the URL so the page stays shareable.

No JS? Fill the form by hand. The geolocation button needs JavaScript.